CAPE
4 33 76 155 199 55 129 186 200 224 52 3 7 13 40 43 31 27 9 27 280 380 859 1151 2100 1956 2104 1969 2312 2381 2289 2295 2378 2507 2351 2133 2386 2262 2314 1877 1438 2013 1799 1589 947 1100 1240 1519 1277
35 68 85 275 165 94 145 82 279 225 46 1 43 52 72 63 1 4 46 189 304 453 1019 1152 2007 2324 1855 2044 2037 2026 2145 2247 2257 2181 2180 2092 2035 2005 1854 1528 1821 1948 1966 1411 1097 901 1103 1233 1736
36 85 297 211 312 109 46 79 163 32 0 18 57 39 45 14 1 2 19 292 367 703 1011 1518 2168 2478 2068 2008 2008 2082 2066 2103 1944 1968 2075 2232 2009 1806 1965 1883 2094 2084 1927 1681 1620 1445 1165 1369 1651
106 157 221 365 218 182 159 308 501 124 18 87 85 21 0 0 2 0 82 349 497 643 906 1746 1753 2085 2175 1925 1919 1896 1627 1510 1514 1665 1920 2063 2078 2002 2112 2124 2117 1914 1843 1695 1550 1378 1385 1245 1280
100 292 241 42 55 119 115 308 457 279 325 101 1 1 4 3 0 21 167 344 564 435 749 1291 2166 2173 1816 2132 1597 1648 2049 1832 1908 1928 1695 1842 1977 1990 2127 2147 2029 1854 1562 1776 1666 1357 1174 1278 1453
489 175 48 41 47 68 179 204 444 514 184 5 0 0 7 21 11 153 192 268 540 599 600 931 1741 2217 2295 1588 1559 1816 1973 1964 1891 2117 1976 2124 2003 2101 2105 2008 1911 1834 1776 1697 1721 1584 1482 1317 1409
555 122 100 68 77 96 129 252 460 588 202 82 0 0 16 19 81 310 332 398 507 800 765 947 923 1746 2107 1796 1573 1708 1934 2046 1987 2039 2059 2132 1803 2017 2073 2154 1960 1890 1752 1642 1582 1565 1566 1500 1578
707 511 79 66 31 71 255 187 244 527 232 0 0 0 7 25 143 307 523 651 669 989 1099 1104 1109 1249 1971 1830 1550 1826 2055 2006 1890 1985 1773 1907 2059 1937 1974 1774 1906 1856 1762 1707 1631 1547 1623 1672 1899
545 452 158 22 122 146 180 403 353 196 3 7 0 0 0 13 241 381 586 816 1175 1164 827 653 953 1345 1738 1815 1518 1776 1764 1727 1741 1772 2060 1793 1962 1960 1627 1742 1772 1866 1713 1572 1705 1644 1414 1658 1725
385 224 224 7 142 65 230 475 492 390 111 5 0 0 0 55 235 145 347 431 611 619 551 412 895 1113 1427 1245 1686 1691 1537 1422 1635 1750 1867 1446 1664 1767 1448 1536 1517 1639 1621 1719 1732 1699 1676 1493 1435
129 258 259 211 247 70 443 648 505 514 440 103 22 0 2 61 166 45 137 228 125 178 169 456 1317 1313 1350 1160 1535 1415 1459 1456 1620 1888 1918 1749 1789 1907 1591 1652 1871 1977 693 828 1053 1065 1240 1270 1526
58 137 357 275 234 125 260 542 566 569 463 307 13 0 2 46 94 35 79 178 245 415 321 891 1327 1461 1538 1347 1309 1156 1186 1306 1359 1562 1604 1738 1774 2121 2172 2513 1510 1984 1698 1314 1298 1196 1541 1612 1829
0 0 0 79 53 3 15 334 423 572 393 69 6 0 9 15 47 20 70 144 369 342 439 919 1195 1289 1535 1634 1316 964 1031 1065 1189 1411 1389 1346 1648 1891 1971 2300 1392 1683 1630 1494 1710 1728 1469 1585 1591
0 0 0 0 0 0 0 92 505 347 80 26 0 0 4 31 32 62 78 85 252 507 538 802 1000 949 1340 1262 1368 1013 951 1033 1179 1341 1222 1182 1737 1827 1781 2133 1559 1481 1487 1563 1623 1947 1833 1670 1592
0 0 0 0 0 0 32 284 397 165 94 35 15 0 4 63 35 64 92 141 385 482 530 729 731 731 1224 1119 831 783 708 658 891 1122 1639 1581 1564 1568 1878 2088 2441 1687 1634 1792 1596 1891 1784 1091 799
0 0 0 0 0 0 159 223 681 81 89 56 13 21 28 81 117 243 165 201 415 363 539 630 215 347 903 702 550 417 503 606 937 1250 1486 1799 1864 1713 1476 1735 1913 1812 1929 1435 1572 1950 1347 936 1030
0 0 0 0 0 0 358 217 643 81 138 95 54 39 43 83 174 233 304 287 302 358 452 469 282 159 418 461 332 420 522 612 847 1008 1163 1377 1838 1661 1634 1724 1811 2093 2007 1862 1663 1519 1257 1249 1426
0 0 0 0 0 0 200 232 603 144 133 250 131 93 70 86 139 218 315 353 310 287 358 366 309 313 624 345 537 427 468 566 832 1141 1348 1561 1697 1879 1875 1568 1827 2320 2454 1736 1604 1624 1409 697 120
0 0 0 0 0 0 0 165 569 482 135 160 219 157 137 96 121 182 279 357 351 345 287 298 295 505 667 373 306 516 651 906 1361 1002 1409 1595 1742 2005 2122 1568 1774 1607 1829 1699 2028 1401 1314 147 59
0 0 0 0 0 0 0 0 184 573 507 273 113 118 147 142 159 263 318 318 322 409 341 289 256 339 672 372 550 656 840 860 1313 1125 1397 1669 1884 2121 2085 1829 1533 1576 1817 1942 1801 1643 1154 786 39
0 0 0 0 0 0 0 0 80 489 550 447 305 165 98 133 172 262 345 325 281 357 405 419 473 507 566 763 615 752 770 770 1024 1121 1166 1553 1782 1895 2242 2119 1821 1625 1653 2340 2103 1865 1551 675 64
0 0 0 0 0 0 6 1 111 301 535 474 476 380 325 212 174 186 252 335 325 349 382 449 627 643 505 735 741 1197 863 712 730 1150 1149 1349 1589 1596 1797 2139 2026 1972 1425 2162 1922 1750 1559 1437 749
0 0 0 0 0 0 0 14 0 119 395 565 506 466 432 388 284 221 262 287 279 271 266 303 500 855 927 953 1144 939 1374 918 830 835 1312 1290 1505 1561 1499 1950 2212 2301 2287 1974 2046 2190 1855 1447 996
0 0 0 0 0 0 0 0 0 0 22 261 557 530 435 392 379 342 295 306 284 215 142 167 547 905 1026 943 1014 1360 1650 1130 743 771 742 903 990 1339 1687 1786 2198 2291 2489 2306 2124 2423 2155 1961 1352
0 0 0 0 0 0 0 0 0 0 0 1 198 585 590 452 437 431 377 278 371 389 267 400 719 829 924 954 1071 1168 1524 1620 1367 1353 761 973 580 769 1375 1954 2189 2104 2494 2337 2283 2299 2196 2034 1871
0 0 0 0 0 0 0 0 0 0 0 1 87 197 370 653 569 550 517 553 565 653 793 680 834 891 808 867 1091 1334 1492 671 735 1099 718 524 413 438 1050 1587 1780 2152 2302 2476 2537 2264 2139 2190 2203
0 0 0 0 0 0 0 0 0 0 0 0 0 28 117 226 658 647 591 545 647 795 829 733 971 1064 957 817 1051 1243 1275 1207 934 1469 1207 644 987 324 742 1131 1387 1670 1979 2401 2584 2326 2431 2271 2345
0 0 0 0 0 0 0 0 0 0 0 0 0 0 8 82 166 565 640 707 799 667 798 781 825 1040 1091 982 1023 1106 1222 1313 1289 1206 1313 1360 1009 810 604 1062 1183 1391 1668 1969 2361 2161 2464 2612 2434
0 0 0 0 0 0 0 0 0 0 0 0 0 0 29 120 145 297 772 917 845 628 580 741 703 920 992 1048 1111 1227 1282 1034 1099 1016 1017 1409 1201 1072 1139 1309 1403 1521 1624 1862 2165 2274 2177 2465 2658
0 0 0 0 0 0 0 0 0 0 0 0 0 0 0 101 188 304 577 769 749 955 641 761 704 511 848 967 1169 1222 1355 1422 984 1220 984 941 1224 1109 1126 1164 1320 1386 1505 1732 1994 1982 1873 2368 2545
CIN
-0 -4 -0 -0 -5 -14 -3 -25 -8 -24 -32 -69 -50 -31 -28 -48 -26 -42 -99 -76 -9 -6 -0 -0 -0 -0 -0 -0 -0 -0 -1 -1 -0 -0 -0 -0 -0 -0 -0 -0 -0 -0 -0 -0 -18 -6 -0 -0 -0
-25 -0 -2 -1 -0 -0 -0 -12 -11 -25 -46 -102 -29 -29 -23 -54 -140 -32 -99 -14 -13 -10 -0 -0 -0 -0 -0 -0 -0 -0 -1 -0 -0 -0 -0 -0 -0 -1 -0 -0 -0 -0 -0 -0 -5 -11 -1 -0 -0
-11 -0 -6 -12 -0 -0 -15 -34 -26 -81 -0 -55 -63 -67 -64 -122 -0 -46 -136 -11 -9 -5 -0 -0 -0 -0 -0 -0 -0 -0 -0 -0 -0 -0 -0 -0 -1 -4 -0 -0 -0 -0 -0 -0 -0 -0 -3 -0 -0
-6 -0 -0 -0 -0 -12 -14 -1 -1 -73 -59 -44 -58 -78 -0 -0 -0 -0 -108 -12 -5 -11 -1 -0 -0 -0 -0 -0 -0 -0 -0 -0 -0 -0 -2 -0 -0 -0 -0 -0 -0 -0 -0 -0 -0 -0 -0 -3 -6
-4 -0 -0 -0 -17 -29 -41 -24 -20 -18 -22 -47 -56 -0 -0 -0 -0 -61 -68 -14 -6 -21 -5 -0 -0 -0 -1 -0 -0 -0 -0 -0 -0 -0 -0 -0 -0 -0 -0 -0 -0 -0 -1 -0 -0 -4 -6 -5 -5
-0 -3 -19 -2 -41 -44 -54 -67 -31 -18 -61 -18 -0 -0 -0 -0 -75 -68 -49 -28 -8 -16 -12 -3 -0 -0 -0 -0 -0 -0 -0 -0 -0 -0 -1 -0 -0 -0 -0 -0 -0 -0 -0 -0 -0 -4 -9 -9 -9
-1 -8 -29 -50 -52 -46 -43 -71 -43 -32 -57 -72 -0 -0 -0 -0 -122 -24 -19 -15 -11 -4 -9 -5 -6 -0 -0 -0 -0 -0 -0 -0 -0 -0 -0 -1 -0 -0 -0 -0 -0 -0 -0 -1 -1 -6 -10 -12 -12
-0 -0 -51 -71 -82 -47 -54 -66 -67 -37 -58 -40 -0 -0 -0 -0 -69 -11 -0 -0 -2 -0 -1 -4 -1 -0 -0 -0 -0 -0 -0 -0 -0 -0 -0 -0 -0 -0 -1 -6 -2 -1 -4 -2 -5 -7 -11 -14 -9
-0 -0 -30 -44 -34 -32 -72 -56 -82 -115 -133 -51 -0 -0 -0 -0 -37 -1 -0 -0 -0 -0 -4 -18 -4 -0 -0 -0 -0 -0 -0 -0 -0 -0 -0 -3 -0 -0 -0 -6 -6 -4 -7 -8 -8 -11 -18 -13 -11
-20 -34 -31 -45 -32 -63 -55 -55 -83 -77 -110 -132 -0 -0 -0 -136 -57 -71 -15 -13 -1 -10 -17 -36 -4 -1 -0 -0 -0 -0 -0 -0 -0 -0 -0 -13 -7 -6 -2 -7 -7 -6 -7 -6 -11 -9 -15 -18 -1
-83 -72 -77 -44 -18 -57 -17 -32 -50 -58 -64 -144 -232 -0 -0 -139 -94 -110 -95 -63 -88 -66 -57 -32 -0 -0 -0 -0 -0 -0 -0 -0 -0 -0 -1 -6 -8 -7 -3 -0 -1 -2 -43 -20 -22 -25 -14 -14 -9
-116 -118 -71 -45 -40 -55 -38 -21 -46 -53 -33 -82 -247 -0 -140 -171 -139 -174 -154 -94 -66 -39 -48 -10 -0 -0 -0 -0 -2 -6 -9 -7 -8 -8 -16 -11 -8 -7 -7 -4 -10 -6 -7 -24 -26 -24 -18 -12 -12
-0 -0 -0 -47 -54 -49 -93 -42 -25 -53 -97 -204 -267 -0 -224 -135 -142 -165 -128 -107 -64 -53 -42 -17 -4 -2 -0 -0 -6 -23 -25 -20 -19 -19 -30 -30 -19 -12 -12 -16 -13 -10 -12 -20 -19 -14 -9 -12 -17
-0 -0 -0 -0 -0 -0 -0 -81 -45 -128 -207 -270 -0 -0 -129 -171 -178 -158 -166 -175 -106 -58 -44 -31 -19 -25 -5 -12 -17 -37 -39 -30 -31 -26 -29 -48 -22 -18 -16 -10 -10 -12 -14 -21 -23 -18 -15 -9 -17
-0 -0 -0 -0 -0 -0 -88 -61 -67 -180 -225 -270 -264 -0 -132 -178 -170 -166 -175 -141 -82 -67 -52 -43 -45 -52 -21 -27 -52 -53 -55 -46 -34 -29 -26 -28 -37 -28 -26 -17 -6 -9 -21 -23 -26 -24 -29 -17 -23
-0 -0 -0 -0 -0 -0 -60 -26 -104 -228 -218 -243 -245 -236 -211 -193 -133 -93 -103 -94 -64 -69 -60 -48 -98 -94 -50 -60 -78 -78 -66 -50 -32 -23 -21 -22 -24 -34 -37 -19 -18 -18 -15 -17 -11 -6 -5 -10 -8
-0 -0 -0 -0 -0 -0 -39 -51 -110 -226 -179 -210 -213 -200 -201 -173 -106 -84 -82 -78 -79 -84 -72 -67 -94 -115 -105 -91 -94 -81 -69 -61 -34 -30 -25 -28 -21 -29 -22 -19 -23 -28 -14 -10 -8 -9 -14 -10 -6
-0 -0 -0 -0 -0 -0 -32 -49 -112 -220 -176 -157 -188 -178 -168 -194 -167 -107 -77 -61 -72 -84 -85 -84 -88 -96 -84 -100 -72 -68 -61 -58 -49 -44 -40 -40 -26 -24 -19 -22 -27 -8 -11 -14 -13 -20 -20 -31 -80
-0 -0 -0 -0 -0 -0 -0 -40 -76 -135 -198 -202 -161 -188 -193 -205 -152 -104 -85 -66 -60 -72 -88 -96 -103 -84 -64 -90 -75 -51 -39 -35 -33 -55 -62 -54 -39 -24 -16 -18 -18 -20 -13 -9 -14 -30 -25 -53 -102
-0 -0 -0 -0 -0 -0 -0 -0 -60 -114 -144 -175 -209 -214 -196 -151 -132 -107 -76 -76 -73 -80 -103 -102 -118 -101 -70 -84 -76 -57 -46 -39 -24 -41 -56 -50 -35 -24 -20 -23 -20 -32 -12 -22 -21 -12 -8 -18 -109
-0 -0 -0 -0 -0 -0 -10 -0 -69 -94 -98 -87 -116 -134 -191 -164 -150 -118 -96 -96 -92 -94 -114 -114 -107 -94 -81 -57 -65 -71 -60 -54 -30 -36 -31 -34 -42 -27 -22 -24 -19 -28 -19 -13 -6 -3 -10 -5 -44
-0 -0 -0 -0 -0 -0 -16 -0 -59 -79 -114 -127 -126 -128 -139 -161 -156 -125 -104 -96 -115 -124 -104 -111 -98 -90 -88 -69 -50 -33 -31 -26 -32 -24 -18 -27 -49 -38 -28 -23 -21 -17 -18 -12 -17 -11 -9 -12 -5
-0 -0 -0 -0 -0 -0 -0 -5 -0 -56 -69 -109 -144 -151 -143 -145 -156 -167 -165 -160 -159 -129 -125 -118 -107 -74 -62 -51 -40 -41 -17 -25 -32 -30 -26 -32 -43 -46 -41 -30 -19 -15 -7 -21 -19 -15 -22 -12 -11
-0 -0 -0 -0 -0 -0 -0 -0 -0 -0 -60 -100 -120 -156 -177 -162 -155 -159 -168 -135 -113 -110 -112 -111 -93 -79 -62 -62 -56 -41 -19 -35 -50 -49 -48 -19 -18 -21 -40 -32 -24 -17 -14 -14 -12 -9 -18 -13 -21
-0 -0 -0 -0 -0 -0 -0 -0 -0 -0 -0 -27 -113 -143 -171 -175 -164 -162 -159 -153 -127 -98 -112 -74 -70 -79 -74 -68 -52 -53 -37 -31 -44 -38 -43 -28 -48 -46 -31 -34 -29 -19 -20 -18 -11 -14 -12 -16 -9
-0 -0 -0 -0 -0 -0 -0 -0 -0 -0 -0 -17 -129 -112 -114 -145 -174 -176 -185 -164 -152 -139 -109 -79 -65 -70 -84 -75 -60 -58 -54 -64 -72 -50 -55 -76 -83 -80 -53 -35 -29 -23 -20 -17 -15 -8 -7 -9 -8
-0 -0 -0 -0 -0 -0 -0 -0 -0 -0 -0 -0 -0 -129 -157 -184 -210 -234 -221 -188 -163 -150 -137 -139 -76 -74 -85 -95 -79 -67 -71 -70 -75 -65 -88 -90 -77 -109 -78 -56 -40 -33 -25 -20 -12 -7 -10 -12 -11
-0 -0 -0 -0 -0 -0 -0 -0 -0 -0 -0 -0 -0 -0 -168 -186 -233 -215 -237 -211 -192 -196 -166 -166 -135 -117 -109 -98 -90 -73 -78 -90 -93 -89 -96 -68 -84 -95 -88 -75 -60 -42 -38 -31 -21 -13 -8 -7 -5
-0 -0 -0 -0 -0 -0 -0 -0 -0 -0 -0 -0 -0 -0 -101 -152 -209 -232 -234 -242 -240 -229 -208 -174 -183 -145 -121 -111 -108 -101 -97 -131 -119 -118 -134 -90 -90 -93 -77 -66 -60 -47 -42 -41 -32 -27 -18 -9 -8
-0 -0 -0 -0 -0 -0 -0 -0 -0 -0 -0 -0 -0 -0 -3 -165 -184 -230 -255 -267 -263 -239 -234 -200 -196 -195 -162 -155 -132 -122 -118 -109 -147 -136 -148 -153 -119 -112 -101 -88 -83 -68 -55 -49 -43 -35 -25 -23 -21
Wind_Speed
9 8 3 1 2 1 1 2 2 6 9 8 16 6 7 5 1 3 12 11 19 17 14 15 15 15 16 14 13 12 13 12 11 12 12 12 12 12 13 12 12 11 10 11 11 9 10 9 9
9 8 1 2 2 3 4 6 4 2 10 16 8 8 4 4 3 11 12 18 20 17 15 14 14 14 15 13 13 12 11 11 11 11 11 12 12 13 14 13 11 11 11 11 11 10 10 9 10
10 4 2 1 2 2 3 5 4 2 13 13 5 5 2 5 6 18 13 20 19 16 14 14 14 14 14 14 12 11 12 12 11 10 12 11 11 11 13 13 10 11 10 12 10 10 9 9 9
6 3 3 3 3 3 2 4 5 12 10 5 9 7 5 3 13 8 21 20 18 17 14 16 15 14 14 13 13 12 11 11 11 10 11 11 11 11 13 12 10 10 10 10 10 9 8 8 8
3 2 3 3 0 1 1 1 3 14 7 7 3 5 5 2 7 20 20 19 18 17 14 14 13 13 13 12 12 11 11 10 10 11 11 11 11 11 10 10 10 8 8 9 9 9 8 8 7
3 2 3 1 3 2 2 4 7 8 7 8 6 8 4 8 17 19 20 19 17 16 14 14 12 12 13 12 11 10 11 10 9 11 10 11 10 10 10 10 9 8 9 9 8 7 8 7 6
2 2 2 1 1 3 4 9 7 9 9 7 11 6 5 13 19 18 18 17 16 15 14 11 11 10 13 12 10 9 10 9 10 11 11 11 11 9 10 9 9 8 8 9 8 7 7 7 7
3 2 2 3 1 3 6 6 7 8 6 14 11 7 10 15 19 18 17 16 16 14 13 11 10 10 9 9 10 8 9 9 10 12 11 10 9 9 8 7 8 8 8 8 8 7 6 7 7
3 2 4 2 2 2 6 4 6 8 15 4 9 7 18 23 20 19 17 15 14 12 12 12 11 10 9 8 9 8 9 8 9 8 10 7 6 6 5 6 6 6 6 7 8 7 6 7 9
6 3 5 2 2 1 7 7 10 8 14 6 7 14 24 24 21 21 19 17 17 15 14 12 11 11 9 6 7 6 7 5 5 5 5 4 5 4 5 5 4 7 6 8 8 5 6 4 4
6 5 4 3 3 4 6 6 7 11 10 11 20 24 26 26 22 19 18 17 17 16 12 13 11 11 10 7 5 4 4 4 5 6 4 4 3 2 3 3 3 4 4 2 3 3 2 3 3
6 10 7 2 3 5 5 7 8 14 1 12 20 27 28 24 24 21 20 19 17 15 15 14 12 10 9 6 5 5 4 4 4 5 4 3 2 2 3 2 3 3 2 2 1 2 3 3 3
13 7 5 8 10 7 4 9 4 11 4 16 21 27 27 25 23 20 19 18 17 16 15 15 13 11 9 8 5 5 4 5 4 4 4 3 2 1 1 3 3 3 2 2 2 3 3 2 2
3 16 10 8 9 7 8 6 8 5 13 19 23 26 26 25 24 20 20 19 18 16 16 15 14 12 10 8 7 5 4 4 4 3 3 4 1 2 1 1 4 4 3 4 2 1 3 2 1
8 3 5 10 7 5 7 7 8 12 16 20 22 23 25 24 22 20 19 19 17 16 16 16 15 13 11 9 7 5 5 5 4 3 4 3 2 1 1 1 4 4 3 3 3 3 1 2 2
6 6 5 3 11 5 10 5 7 15 18 19 21 22 22 24 24 20 18 18 17 15 16 15 13 14 12 9 7 5 5 4 4 3 3 4 3 2 2 1 3 4 3 3 3 2 2 2 3
5 9 15 5 10 6 11 4 11 14 16 18 20 21 21 22 22 21 20 18 17 16 15 15 14 14 13 10 7 6 6 5 4 4 4 4 5 4 2 2 2 4 4 3 2 3 1 2 2
11 12 7 14 9 12 13 9 12 16 17 18 19 20 21 22 24 21 20 18 17 16 15 14 13 13 12 8 6 5 5 5 4 5 6 6 4 5 3 2 2 3 2 4 3 2 3 3 2
7 5 12 7 8 13 15 15 13 16 15 18 20 21 22 24 21 20 19 19 18 17 16 16 15 13 10 9 8 7 7 5 4 4 5 6 5 6 5 3 4 3 3 3 5 4 3 3 2
12 6 8 9 5 9 12 17 12 19 22 21 21 21 22 21 22 21 21 20 20 19 18 16 16 14 12 9 8 5 6 5 3 3 4 5 6 6 6 5 4 4 4 5 5 3 2 2 2
18 18 9 6 4 9 5 11 12 15 14 17 19 18 19 22 23 23 23 22 20 21 20 18 16 15 13 12 8 5 4 2 4 4 4 6 7 7 7 7 5 5 4 2 3 3 3 2 2
19 15 14 11 6 8 10 11 10 15 20 20 20 21 22 23 23 22 23 23 23 21 19 18 17 15 14 14 11 11 9 8 7 6 4 5 7 7 7 7 5 4 4 3 3 3 3 2 2
13 8 16 18 13 11 12 8 13 14 16 21 22 23 23 23 24 25 26 26 25 21 20 18 17 15 14 14 13 12 11 8 6 7 8 6 6 7 8 8 7 6 4 3 4 5 5 3 2
10 6 11 12 13 18 19 12 14 13 18 18 20 23 24 24 25 25 24 22 21 20 20 19 18 17 16 16 16 15 13 11 9 8 8 8 7 6 8 9 7 6 4 5 4 3 5 3 3
16 13 5 9 12 16 15 17 16 7 17 18 19 22 24 25 25 25 25 24 23 23 22 19 18 18 17 18 17 17 15 14 13 12 10 9 9 7 8 9 8 7 7 6 4 5 5 4 5
21 18 8 12 13 14 15 13 15 23 14 11 14 18 21 24 24 25 26 24 24 24 23 22 20 19 18 18 18 16 16 12 12 12 11 9 9 9 9 9 9 9 8 7 6 5 5 4 5
12 23 19 9 2 9 13 17 16 7 17 18 17 14 19 23 25 28 27 26 24 23 24 23 22 20 19 20 16 16 15 15 13 14 12 10 8 8 10 10 9 10 9 9 8 7 7 6 6
9 7 16 13 19 13 7 17 13 20 20 14 11 16 18 20 23 23 24 25 23 24 23 23 22 22 20 20 18 16 16 16 14 12 14 12 10 10 9 10 10 9 9 9 9 8 9 8 7
8 10 8 9 17 14 9 10 5 16 15 20 23 19 17 18 21 24 24 24 24 23 23 23 22 22 20 19 18 18 16 17 15 15 14 13 12 11 11 11 11 10 9 9 9 10 10 10 10
6 6 10 11 13 15 16 17 2 7 6 6 9 13 15 17 19 22 24 23 23 23 23 25 24 23 21 20 18 18 17 16 17 16 16 14 14 12 12 12 13 12 11 10 11 11 9 10 11
Wind_Direction
158 153 145 225 217 246 236 96 273 160 145 141 146 156 149 42 337 84 138 149 141 140 142 135 125 124 120 122 117 114 120 119 123 126 128 133 138 127 123 119 120 122 106 95 95 101 101 99 107
152 132 202 280 248 257 111 152 76 23 139 134 89 113 121 93 79 122 135 150 145 141 140 138 128 126 123 121 120 123 114 111 113 123 126 134 134 142 127 125 126 115 108 100 99 102 103 104 98
160 147 260 243 244 244 119 149 131 39 140 143 108 51 73 110 103 142 137 147 144 141 138 135 133 132 130 127 130 118 121 114 112 116 127 125 123 114 124 125 119 107 106 104 104 106 110 110 107
159 175 230 240 212 194 126 112 117 130 127 110 125 92 94 293 151 144 148 148 145 144 143 131 139 131 126 123 124 121 116 117 116 110 107 109 109 113 113 111 107 107 106 106 105 108 110 118 121
178 231 229 229 238 162 204 54 136 152 117 132 150 114 95 45 131 143 148 152 148 146 146 141 140 131 129 130 123 130 124 127 123 120 115 111 107 111 108 105 105 98 98 109 115 118 110 108 107
174 271 241 144 159 161 142 187 139 141 146 145 117 120 112 132 142 148 151 153 153 150 151 144 141 141 137 132 130 127 119 120 125 117 112 115 110 110 111 108 107 107 108 105 112 121 118 115 113
256 216 279 224 164 166 171 158 186 165 150 171 145 113 114 149 148 150 151 150 156 154 151 151 146 146 139 136 133 138 129 115 113 111 108 104 106 108 106 105 102 100 98 99 106 120 125 110 92
262 246 247 239 231 90 125 149 181 168 149 127 154 156 165 160 153 148 151 152 154 158 157 156 152 149 144 146 143 139 119 109 108 105 104 97 108 93 94 97 102 99 94 101 109 109 114 113 103
230 227 210 220 169 89 147 147 129 108 138 141 167 148 145 153 152 150 151 154 154 163 165 163 158 158 149 152 144 140 127 120 114 111 90 124 96 93 103 67 91 101 109 108 108 113 130 123 105
215 224 207 201 161 28 181 181 144 150 152 122 123 122 142 154 157 159 160 161 166 166 170 168 165 158 157 161 146 149 141 136 119 123 119 124 107 96 84 72 62 92 89 96 86 106 119 166 112
191 232 216 153 186 2 154 169 165 153 187 184 162 153 156 160 161 165 166 168 171 169 170 172 165 163 171 158 165 162 157 150 145 137 142 120 123 112 99 111 88 95 72 69 122 129 139 114 108
218 238 251 267 151 347 191 161 187 188 124 172 165 161 160 169 167 170 172 168 172 178 176 172 170 169 175 173 178 169 168 169 167 150 154 149 163 134 126 131 105 101 59 91 87 119 138 126 125
223 240 243 255 286 290 242 205 216 203 117 142 153 161 167 169 169 174 177 172 175 182 180 178 175 177 178 183 176 183 184 183 171 170 155 176 191 181 213 136 131 101 112 103 137 170 174 161 196
220 231 254 291 292 260 273 235 194 118 136 144 157 166 169 174 174 175 181 180 180 184 185 179 182 183 183 189 188 188 189 183 200 185 154 172 182 148 166 166 119 106 125 131 120 90 105 98 130
224 304 241 246 250 241 173 199 208 145 153 153 165 169 171 175 178 186 184 184 185 188 183 184 184 183 190 194 190 196 197 192 206 208 200 209 204 120 8 156 122 115 130 159 143 129 106 108 115
208 237 233 189 206 225 194 202 152 158 157 160 167 173 176 180 185 188 189 190 189 189 187 187 188 185 192 198 191 197 199 209 215 229 230 213 211 239 229 248 94 134 146 131 133 140 164 124 93
192 212 217 252 199 188 196 200 159 166 169 166 172 179 182 183 190 191 191 191 191 194 189 192 193 191 193 197 198 203 202 218 228 241 245 219 203 181 214 226 161 170 144 136 143 128 58 56 82
200 211 210 215 182 208 204 219 166 174 179 177 178 182 189 192 194 191 194 190 191 195 195 195 198 197 193 185 194 201 205 222 233 245 245 228 201 167 178 198 243 155 146 131 128 93 63 32 50
219 225 223 211 209 204 219 225 190 180 185 185 186 189 193 196 192 194 195 193 193 195 197 196 198 199 188 186 187 202 203 207 230 227 227 217 197 173 178 179 195 193 191 148 146 143 166 102 99
227 229 221 244 235 222 228 234 202 183 197 193 189 194 197 193 194 196 197 196 196 195 198 196 203 196 197 192 190 201 194 202 220 205 211 212 198 179 180 182 198 210 187 170 151 167 138 111 122
227 231 218 252 292 240 224 240 199 202 201 199 203 199 201 202 198 197 197 200 197 198 197 196 197 198 200 200 190 171 164 174 198 196 203 203 201 196 201 202 187 186 235 193 158 165 181 153 123
227 221 238 250 273 235 214 240 204 194 201 202 201 201 202 204 204 201 202 200 203 201 198 198 194 195 200 195 194 199 202 207 210 205 209 205 211 211 210 214 206 192 218 213 161 166 164 198 161
235 224 226 237 250 271 241 248 233 194 205 211 208 206 206 204 202 203 202 204 202 198 199 197 194 193 197 194 200 199 211 211 205 206 208 211 208 214 212 212 211 211 211 226 200 184 194 180 218
207 233 224 227 236 244 237 239 239 204 209 217 212 210 209 206 204 205 207 203 204 201 198 198 193 195 194 193 200 199 205 206 207 208 212 215 210 201 207 207 210 227 217 209 222 234 211 180 204
207 208 196 207 214 235 216 229 232 225 212 218 206 210 208 207 206 203 203 202 200 201 199 198 193 197 195 197 200 203 206 206 210 209 220 225 223 211 204 203 207 213 221 224 202 226 230 198 215
202 206 208 215 217 226 212 232 225 224 227 229 229 215 208 207 208 206 201 199 199 197 195 194 193 197 194 199 200 202 205 211 219 221 229 229 232 227 208 207 214 219 222 222 218 226 242 223 223
184 218 225 270 272 243 221 239 254 226 235 231 225 220 212 208 207 207 202 201 198 196 197 195 194 197 194 197 199 202 203 209 216 218 216 224 226 228 224 213 216 221 222 222 221 234 231 232 233
234 201 201 225 237 234 206 234 231 201 226 220 210 218 221 211 208 206 207 204 199 196 195 193 198 197 196 199 199 202 202 205 211 212 217 216 217 216 219 218 222 225 226 225 222 231 232 227 233
189 210 219 247 230 229 236 233 212 221 223 226 227 220 218 208 204 204 204 202 199 195 192 195 196 197 198 199 200 201 204 207 207 212 215 214 210 206 213 220 222 222 222 224 222 235 241 230 238
292 287 255 230 203 238 253 233 249 233 241 224 248 245 242 226 210 202 202 199 199 198 194 193 195 196 198 198 198 202 203 204 207 210 212 210 210 207 213 219 227 227 228 227 227 232 236 228 234